Location: Unspecified
(22.6800°N, 112.2000°E)
Time: 16:47:38
(UTC+08:00)

A-11 Canister half - Visible Passes

Search period start: 31 July 2021 00:00
Search period end: 10 August 2021 00:00
Orbit: 1527 x 1682 km, 47.3° (Epoch: 30 July)

Date Brightness Start Highest point End Pass type
(mag) Time Alt. Az. Time Alt. Az. Time Alt. Az.
31 Jul 10.3 21:06:36 10° WNW 21:14:11 27° SW 21:20:14 14° S visible
01 Aug 10.3 20:44:43 10° WNW 20:52:34 29° SW 21:00:13 10° S visible
02 Aug 10.3 20:22:51 10° WNW 20:30:57 32° SW 20:38:54 10° S visible
03 Aug 10.2 20:01:00 10° WNW 20:09:21 34° SW 20:17:30 10° S visible
04 Aug 10.2 19:39:10 10° WNW 19:47:43 37° SW 19:56:05 10° S visible
05 Aug 10.2 19:17:20 10° WNW 19:26:06 40° SW 19:34:38 10° SSE visible
